This is the latest recevied weather packets stored in our database for station/object SV1RVP-13. If no packets are shown the sender has not sent any weather packets the latest 10 day(s).
| Time | Temp. | Humidity | Pressure | Rain* | Wind** | Luminosity | Snow |
|---|---|---|---|---|---|---|---|
| 1777733908 | 13.33° C | 46% | 1016.9 hPa | 0.25 mm | - | - | - |
| 1777733310 | 13.33° C | 48% | 1016.9 hPa | 0.25 mm | - | - | - |
| 1777732712 | 13.33° C | 48% | 1016.9 hPa | 0.25 mm | - | - | - |
| 1777732134 | 12.78° C | 49% | 1017 hPa | 0.25 mm | - | - | - |
| 1777731525 | 12.78° C | 48% | 1017.2 hPa | 0.25 mm | - | - | - |
| 1777730910 | 13.33° C | 48% | 1016.9 hPa | 0.25 mm | - | - | - |
| 1777730324 | 13.33° C | 47% | 1017 hPa | 0.25 mm | - | - | - |
| 1777729717 | 13.33° C | 45% | 1017 hPa | 0.25 mm | - | - | - |
| 1777729120 | 13.89° C | 45% | 1016.9 hPa | 0.25 mm | - | - | - |
| 1777728509 | 13.89° C | 44% | 1016.9 hPa | 0.25 mm | - | - | - |
| 1777727913 | 13.89° C | 44% | 1017 hPa | 0.25 mm | - | - | - |
| 1777727313 | 13.89° C | 45% | 1017 hPa | 0.25 mm | - | - | - |
| 1777726733 | 13.33° C | 45% | 1017 hPa | 0.25 mm | - | - | - |
| 1777726117 | 13.89° C | 45% | 1017.1 hPa | 0.25 mm | - | - | - |
| 1777725518 | 13.89° C | 47% | 1017 hPa | 0.25 mm | - | - | - |
| 1777724909 | 13.89° C | 46% | 1017 hPa | 0.25 mm | - | - | - |
| 1777724309 | 14.44° C | 46% | 1017 hPa | 0.25 mm | - | - | - |
| 1777723712 | 15° C | 45% | 1016.9 hPa | 0.25 mm | - | - | - |
| 1777723125 | 13.89° C | 47% | 1017.2 hPa | 0.25 mm | - | - | - |
| 1777722518 | 13.89° C | 48% | 1017.1 hPa | 0.25 mm | - | - | - |
| 1777721920 | 13.89° C | 50% | 1017.1 hPa | 0.25 mm | - | - | - |
| 1777721311 | 14.44° C | 51% | 1017.2 hPa | 0.25 mm | - | - | - |
| 1777720714 | 14.44° C | 52% | 1017.3 hPa | 0.25 mm | - | - | - |
| 1777720116 | 13.89° C | 52% | 1017.3 hPa | 0.25 mm | - | - | - |
| 1777719532 | 13.33° C | 53% | 1017.3 hPa | 0.25 mm | - | - | - |
* Rain since midnight (hover to see other rain measurements)
** Current wind speed in m/s (hover to see current wind gust speed)